Location: Curupao
(10.4996°N, 66.6442°W)
Time: 23:57:45
(UTC+00:00)

Palapa 6 Rocket - Pass Details

Date: 23 May 2024
Orbit: 483 x 1187 km, 22.7° (Epoch: 12 June)

Event Time Altitude Azimuth Distance (km) Brightness Sun altitude
Exits shadow 08:19:13 59° 49° (NE) 569 3.1 -24.2°
Drops below altitude 10° 08:22:49 10° 102° (ESE) 1,754 6.0 -23.4°
Sets 08:25:13 0° 106° (ESE) 2,721 7.1 -22.9°
